Location: Observatory
(52.1446°N, 0.4624°W)
Time: 03:31:36
(UTC+01:00)

ISS - Pass Details

Date: 25 May 2019
Orbit: 408 x 418 km, 51.6° (Epoch: 17 June)

Event Time Altitude Azimuth Distance (km) Brightness Sun altitude
Rises 22:20:29 0° 270° (W) 2,355 0.6 -9.1°
Reaches altitude 10° 22:22:34 10° 269° (W) 1,494 -0.4 -9.3°
Maximum altitude 22:25:56 84° 183° (S) 425 -3.8 -9.6°
Drops below altitude 10° 22:29:18 10° 94° (E) 1,500 -1.3 -9.9°
Enters shadow 22:30:20 - 94° (E) 1,920 -0.8 -10.0°
